Погода в Дзарджане

Погода в Дзарджане : погода сейчас, прогноз погоды и архив. Всё, что Вы хотите узнать о погоде в Дзарджане!

Поиск расширенной информации на нашем сайте:

Другие новости

Новости СМИ2

Главная страница сайта

Новости сайта

03.07.2017

Напоминаем, что на нашем специализированном сайте Метеоцентр.Азия вы можете получить высокодетализированные автоматические прогнозы погоды по пунктам России, СНГ и мира в авиационном формате (включающие направление и скорость ветра, видимость, явления погоды, количество и форму облачности, нижнюю и верхнюю границу облачности).


Погода в Дзарджане - сегодня

Время (UTC), дата Ветер
(°,м/с) 
Видим.   Явления Облачность Т
(°С)
Тd
(°С)
f(%) Тe
(°С)
Pmin
(гПа)
dP
(гПа)
Po
(мм)
O2
(г/м3)
Тmin Tmax R s Состояние
почвы
15 14.10.18 180 (Ю) 20000 м    10/10 600 м кучево-дожд. 
[Cb cap]
-5.5 -5.9 97 -10  1024.8  -0.5  765  315           
21 14.10.18 170 (Ю) 5{11}  20000 м    10/10 600 м кучево-дожд. 
[Cb cap]
-4.8 -5.9 92 -9  1024.3  764  314           
00 15.10.18 200 (Ю) 6{11}  20000 м    10/10 600 м кучево-дожд. 
[Cb cap]
-4.5 -5.6 92 -9  1024.6  0.3  765  314  -5.2      10  неравномерный
мокрый или
старый снег
100% 
03 15.10.18 170 (Ю) 6{13}  20000 м    10/10 600 м кучево-дожд. 
[Cb cap]
-4.7 -5.8 92 -9  1024.3  -0.3  764  314           
06 15.10.18 210 (ЮЗ) 6{11}  20000 м    10/3 600 м кучево-дожд., средняя 
[Cb cap|Ac trans]
-3.1 -5.1 86 -7  1023.9  -0.4  764  312           
09 15.10.18 220 (ЮЗ) 6{13}  20000 м    10/10 600 м кучево-дожд. 
[Cb cap]
-2.3 -3.2 94 -6  1024.9  1.1  765  311           
12 15.10.18 220 (ЮЗ) 6{13}  20000 м    10/10 600 м кучево-дожд. 
[Cb cap]
-4.1 -4.8 95 -8  1025.3  0.3  765  314    -2.3       
00 16.10.18 180 (Ю) 20000 м    10/10 1000 м 
[Sc]
-4.3 -6.5 85 -8  1022.5  -1.5  763  313  -4.9      10  неравномерный
мокрый или
старый снег
100% 
03 16.10.18 170 (Ю) 20000 м    10/10 1000 м 
[Sc]
-4.6 -6.4 87 -8  1019.8  -2.7  761  313           
06 16.10.18 200 (Ю) 20000 м    10/10 1000 м 
[Sc]
-5.3 -6 95 -9  1017.5  -2.3  759  313           
09 16.10.18 170 (Ю) 20000 м    10/10 1000 м 
[Sc]
-5.6 -6.3 95 -9  1014.9  -2.6  757  312           
12 16.10.18 140 (ЮВ) 20000 м    10/10 1000 м 
[Sc]
-6.6 -7.4 94 -6  1012  -2.9  755  313    -4.6       
15 16.10.18 210 (ЮЗ) 20000 м    10/10 1000 м 
[Sc]
-5.1 -5.8 95 -8  1010.2  -1.8  754  310           
18 16.10.18 190 (Ю) 20000 м    10/10 600 м кучево-дожд. 
[Cb cap]
-3.7 -4.4 95 -7  1009  -1.1  753  308           
03 17.10.18 210 (ЮЗ) 20000 м  слаб. ливневой снег  10/10 600 м кучево-дожд. 
[Cb cap]
-3.1 -3.8 95 -7  1012.9  1.5  756  309           
06 17.10.18 200 (Ю) 20000 м  слаб. ливневой снег  10/10 600 м кучево-дожд. 
[Cb cap]
-2.8 -4.1 91 -6  1013.2  0.4  756  308           
09 17.10.18 210 (ЮЗ) 20000 м  {ливн. осадки}  10/10 600 м кучево-дожд. 
[Cb cap]
-3 -4.7 88 -5  1014.3  757  309           
12 17.10.18 200 (Ю) 20000 м    ясно 
-4.9 -6 92 -7  1015.2  0.9  758  312    -2.8  0.5     
15 17.10.18 180 (Ю) 20000 м    ясно 
-5.3 -6.8 89 -8  1015.5  0.3  758  312           
18 17.10.18 170 (Ю) 20000 м    ясно 
-6.6 -7.4 94 -10  1015.1  -0.4  758  314           
21 17.10.18 170 (Ю) 20000 м    ясно 
-6.1 -7.2 92 -9  1014.5  -0.6  757  313           
00 18.10.18 190 (Ю) 20000 м    10/0 средняя 
[Ac trans]
-5.4 -6.9 89 -9  1013.8  -0.7  757  312  -7.1      15  неравномерный
мокрый или
старый снег
100% 
03 18.10.18 190 (Ю) 7{14}  20000 м    10/0 средняя, верхняя 
[Ac trans|Cs]
-4.8 -7 85 -10  1012.4  -1.4  756  311           
09 18.10.18 200 (Ю) 6{12}  20000 м    10/0 средняя 
[Ac trans]
-4.5 -6.7 85 -9  1009.8  -1.9  754  309           
12 18.10.18 200 (Ю) 6{13}  20000 м    10/10 600 м кучево-дожд. 
[Cb cap]
-4.8 -5.9 92 -9  1008.8  -1  753  309    -4.3       
Время (UTC), дата Ветер
(°,м/с) 
Видим.   Явления Облачность Т
(°С)
Тd
(°С)
f(%) Тe
(°С)
Pmin
(гПа)
dP
(гПа)
Po
(мм)
O2
(г/м3)
Тmin Tmax R s Состояние
почвы

Для получения пояснительной информации подведите курсор к названию столбца.

ПОГОДА в Дзарджане - архив

Всё, что Вы хотите узнать о погоде в Дзарджане - удобно и подробно!

Выберите нужную дату (начиная с 1 января 2015* года) и нажмите кнопку "Найти".
Будут отображены архивные сводки погоды по пункту Дзарджан, начиная с указанной даты.


Отображать данные в формате CSV (для использования в таблицах Excel)


Внимание! Наш архив погоды предназначен исключительно для личного некоммерческого использования в познавательных целях. Если Вам необходимы официальные справки о состоянии погоды (для производственных, юридических, коммерческих и т.п. целей), обращайтесь в органы Росгидромета.

*Примечание: данная дата относится к архиву по метеостанциям СССР (Россия, СНГ, Балтия).
Архив по метеостанциям Зарубежной Европы и Азии (кроме Китая) хранится 10 дней, по другим регионам земного шара (Китай, Африка, Америка, Австралия, Океания) - 1 день.

Дзарджан - район местоположения метеостанции


Название, широта, долгота, высота метеостанции:
Дзарджан 68.7°ш. 124°д. 39 м над ур. моря [Российская Федерация]

Дополнительная информация

В oтличие oт бoльшинства пoгoдных сайтoв мы публикуем пoдрoбную метеoинфoрмацию в детальнoм прoфессиoнальнoм фoрмате.

Характеристики температуры и влажнoсти вoздуха измеряются на высoте 2 м в тени вдали oт зданий и деревьев.
Скoрoсть ветра измеряется на высoте 10 м (на урoвне рoста челoвека скoрoсть ветра ниже в 1.5-2 раза). Если метеoстанция нахoдится в гoрoде или в лесу, тo скoрoсть ветра занижена на 2-4 м/с пo сравнению с oткрытым местoм. Скoрoсть ветра над акватoриями крупных рек и oзёр, а также на вершинах хoлмoв на 2-5 м/с выше, чем в oбычных услoвиях.
Атмoсфернoе давление в разных тoчках местнoсти мoжет значительнo oтличаться oт давления на метеoстанции, в зависимoсти oт услoвий рельефа (при пoдъёме на 10 м давление пoнижается примернo на 1 мм рт.ст.).